Time,TemperatureF,DewpointF,PressureIn,WindDirection,WindDirectionDegrees,WindSpeedMPH,WindSpeedGustMPH,Humidity,HourlyPrecipIn,Conditions,Clouds,dailyrainin,SoftwareType,DateUTC
2013-02-11 00:00:00,22.1,16.8,30.03,East,82,0.0,0.0,80,0.00,,,0.00,Weather View 32 v70,2013-02-11 07:00:00,
2013-02-11 00:05:00,21.9,16.8,30.03,East,82,0.0,0.0,80,0.00,,,0.00,Weather View 32 v70,2013-02-11 07:05:00,
2013-02-11 00:14:00,21.6,17.0,30.03,East,82,0.0,0.0,82,0.00,,,0.00,Weather View 32 v70,2013-02-11 07:14:00,
2013-02-11 00:20:00,21.3,17.2,30.03,East,82,0.0,0.0,84,0.00,,,0.00,Weather View 32 v70,2013-02-11 07:20:00,
2013-02-11 00:25:00,21.2,17.6,30.03,East,82,0.0,0.0,86,0.00,,,0.00,Weather View 32 v70,2013-02-11 07:25:00,
2013-02-11 00:35:00,20.9,17.8,30.03,East,82,0.0,0.0,88,0.00,,,0.00,Weather View 32 v70,2013-02-11 07:35:00,
2013-02-11 00:40:00,20.8,18.0,30.03,East,82,0.0,0.0,89,0.00,,,0.00,Weather View 32 v70,2013-02-11 07:40:00,
2013-02-11 00:45:00,20.7,18.0,30.03,East,82,0.0,0.0,89,0.00,,,0.00,Weather View 32 v70,2013-02-11 07:45:00,
2013-02-11 00:55:00,20.5,18.0,30.03,East,82,0.0,0.0,90,0.00,,,0.00,Weather View 32 v70,2013-02-11 07:55:00,
2013-02-11 01:00:00,20.5,18.1,30.03,East,82,0.0,0.0,90,0.00,,,0.00,Weather View 32 v70,2013-02-11 08:00:00,
2013-02-11 01:05:00,20.3,18.0,30.03,East,82,0.0,0.0,91,0.00,,,0.00,Weather View 32 v70,2013-02-11 08:05:00,
2013-02-11 01:10:00,20.3,18.1,30.03,East,82,0.0,0.0,91,0.00,,,0.00,Weather View 32 v70,2013-02-11 08:10:00,
2013-02-11 01:15:00,20.2,18.2,30.03,East,82,0.0,0.0,92,0.00,,,0.00,Weather View 32 v70,2013-02-11 08:15:00,
2013-02-11 01:25:00,20.0,18.2,30.03,East,82,0.0,0.0,93,0.00,,,0.00,Weather View 32 v70,2013-02-11 08:25:00,
2013-02-11 01:30:00,20.0,18.3,30.03,East,82,0.0,0.0,93,0.00,,,0.00,Weather View 32 v70,2013-02-11 08:30:00,
2013-02-11 01:40:00,19.8,18.2,30.03,East,82,0.0,0.0,94,0.00,,,0.00,Weather View 32 v70,2013-02-11 08:40:00,
2013-02-11 01:45:00,19.6,18.1,30.03,East,82,0.0,0.0,94,0.00,,,0.00,Weather View 32 v70,2013-02-11 08:45:00,
2013-02-11 01:50:00,19.5,18.1,30.03,East,82,0.0,0.0,94,0.00,,,0.00,Weather View 32 v70,2013-02-11 08:50:00,
2013-02-11 02:00:00,19.4,18.1,30.03,East,82,0.0,0.0,95,0.00,,,0.00,Weather View 32 v70,2013-02-11 09:00:00,
2013-02-11 02:10:00,19.4,18.2,30.03,East,82,0.0,0.0,95,0.00,,,0.00,Weather View 32 v70,2013-02-11 09:10:00,
2013-02-11 02:15:00,19.4,18.2,30.03,East,82,0.0,0.0,95,0.00,,,0.00,Weather View 32 v70,2013-02-11 09:15:00,
2013-02-11 02:20:00,19.4,18.2,30.03,East,82,0.0,0.0,95,0.00,,,0.00,Weather View 32 v70,2013-02-11 09:20:00,
2013-02-11 02:25:00,19.2,18.0,30.03,East,82,0.0,0.0,95,0.00,,,0.00,Weather View 32 v70,2013-02-11 09:25:00,
2013-02-11 02:30:00,19.0,17.8,30.03,East,82,0.0,0.0,95,0.00,,,0.00,Weather View 32 v70,2013-02-11 09:30:00,
2013-02-11 02:35:00,18.9,17.8,30.03,East,82,0.0,0.0,95,0.00,,,0.00,Weather View 32 v70,2013-02-11 09:35:00,
2013-02-11 02:45:00,18.5,17.4,30.02,East,82,0.0,0.0,95,0.00,,,0.00,Weather View 32 v70,2013-02-11 09:45:00,
2013-02-11 02:50:00,18.4,17.3,30.02,East,82,0.0,0.0,95,0.00,,,0.00,Weather View 32 v70,2013-02-11 09:50:00,
2013-02-11 02:55:00,18.5,17.4,30.02,East,82,0.0,0.0,96,0.00,,,0.00,Weather View 32 v70,2013-02-11 09:55:00,
2013-02-11 03:00:00,18.4,17.4,30.02,East,82,0.0,0.0,96,0.00,,,0.00,Weather View 32 v70,2013-02-11 10:00:00,
2013-02-11 03:05:00,18.2,17.2,30.02,East,82,0.0,0.0,96,0.00,,,0.00,Weather View 32 v70,2013-02-11 10:05:00,
2013-02-11 03:10:00,18.2,17.2,30.02,East,82,0.0,0.0,96,0.00,,,0.00,Weather View 32 v70,2013-02-11 10:10:00,
2013-02-11 03:15:00,18.2,17.2,30.01,East,82,0.0,0.0,96,0.00,,,0.00,Weather View 32 v70,2013-02-11 10:15:00,
2013-02-11 03:20:00,18.3,17.3,30.01,East,82,0.0,0.0,96,0.00,,,0.00,Weather View 32 v70,2013-02-11 10:20:00,
2013-02-11 03:25:00,18.2,17.2,30.01,East,82,0.0,0.0,96,0.00,,,0.00,Weather View 32 v70,2013-02-11 10:25:00,
2013-02-11 03:35:00,18.1,17.1,30.01,East,82,0.0,0.0,96,0.00,,,0.00,Weather View 32 v70,2013-02-11 10:35:00,
2013-02-11 03:40:00,18.0,17.0,30.01,East,82,0.0,0.0,96,0.00,,,0.00,Weather View 32 v70,2013-02-11 10:40:00,
2013-02-11 03:45:00,18.0,17.0,30.01,East,82,0.0,0.0,96,0.00,,,0.00,Weather View 32 v70,2013-02-11 10:45:00,
2013-02-11 03:50:00,18.2,17.2,30.01,East,82,0.0,0.0,96,0.00,,,0.00,Weather View 32 v70,2013-02-11 10:50:00,
2013-02-11 03:55:00,18.2,17.2,30.00,East,82,0.0,0.0,96,0.00,,,0.00,Weather View 32 v70,2013-02-11 10:55:00,
2013-02-11 04:00:00,18.2,17.2,30.01,East,82,0.0,0.0,96,0.00,,,0.00,Weather View 32 v70,2013-02-11 11:00:00,
2013-02-11 04:05:00,18.2,17.3,30.01,East,82,0.0,0.0,96,0.00,,,0.00,Weather View 32 v70,2013-02-11 11:05:00,
2013-02-11 04:15:00,18.3,17.4,30.00,East,82,0.0,0.0,96,0.00,,,0.00,Weather View 32 v70,2013-02-11 11:15:00,
2013-02-11 04:20:00,18.2,17.3,30.00,East,82,0.0,0.0,96,0.00,,,0.00,Weather View 32 v70,2013-02-11 11:20:00,
2013-02-11 04:25:00,18.1,17.1,30.00,East,82,0.0,0.0,96,0.00,,,0.00,Weather View 32 v70,2013-02-11 11:25:00,
2013-02-11 04:30:00,18.0,17.0,30.00,East,82,0.0,0.0,96,0.00,,,0.00,Weather View 32 v70,2013-02-11 11:30:00,
2013-02-11 04:35:00,18.0,17.1,30.00,East,82,0.0,0.0,96,0.00,,,0.00,Weather View 32 v70,2013-02-11 11:35:00,
2013-02-11 04:40:00,17.8,16.9,30.00,East,82,0.0,0.0,96,0.00,,,0.00,Weather View 32 v70,2013-02-11 11:40:00,
2013-02-11 04:45:00,17.7,16.8,30.00,East,82,0.0,0.0,96,0.00,,,0.00,Weather View 32 v70,2013-02-11 11:45:00,
2013-02-11 04:55:00,17.6,16.7,30.00,East,82,0.0,0.0,96,0.00,,,0.00,Weather View 32 v70,2013-02-11 11:55:00,
2013-02-11 05:00:00,17.5,16.6,30.00,East,82,0.0,0.0,96,0.00,,,0.00,Weather View 32 v70,2013-02-11 12:00:00,
2013-02-11 05:05:00,17.5,16.6,30.00,East,82,0.0,0.0,96,0.00,,,0.00,Weather View 32 v70,2013-02-11 12:05:00,
2013-02-11 05:15:00,17.5,16.6,30.00,East,82,0.0,0.0,96,0.00,,,0.00,Weather View 32 v70,2013-02-11 12:15:00,
2013-02-11 05:20:00,17.6,16.7,30.00,East,82,0.0,0.0,96,0.00,,,0.00,Weather View 32 v70,2013-02-11 12:20:00,
2013-02-11 05:25:00,17.8,16.8,30.00,East,82,0.0,0.0,96,0.00,,,0.00,Weather View 32 v70,2013-02-11 12:25:00,
2013-02-11 05:30:00,17.8,16.8,30.00,East,82,0.0,0.0,96,0.00,,,0.00,Weather View 32 v70,2013-02-11 12:30:00,
2013-02-11 05:40:00,18.0,17.0,30.00,East,82,0.0,0.0,96,0.00,,,0.00,Weather View 32 v70,2013-02-11 12:40:00,
2013-02-11 05:45:00,18.0,17.0,30.00,East,82,0.0,0.0,96,0.00,,,0.00,Weather View 32 v70,2013-02-11 12:45:00,
2013-02-11 05:50:00,18.2,17.2,30.00,East,82,0.0,0.0,96,0.00,,,0.00,Weather View 32 v70,2013-02-11 12:50:00,
2013-02-11 05:55:00,18.2,17.2,30.00,East,82,0.0,0.0,96,0.00,,,0.00,Weather View 32 v70,2013-02-11 12:55:00,
2013-02-11 06:00:00,18.2,17.1,30.00,East,82,0.0,0.0,95,0.00,,,0.00,Weather View 32 v70,2013-02-11 13:00:00,
2013-02-11 06:10:00,18.1,17.0,30.00,East,82,0.0,0.0,95,0.00,,,0.00,Weather View 32 v70,2013-02-11 13:10:00,
2013-02-11 06:15:00,18.2,17.1,30.00,East,82,0.0,0.0,95,0.00,,,0.00,Weather View 32 v70,2013-02-11 13:15:00,
2013-02-11 06:20:00,18.2,17.1,30.00,East,82,0.0,0.0,95,0.00,,,0.00,Weather View 32 v70,2013-02-11 13:20:00,
2013-02-11 06:25:00,18.3,17.1,30.00,East,82,0.0,0.0,95,0.00,,,0.00,Weather View 32 v70,2013-02-11 13:25:00,
2013-02-11 06:35:00,18.4,17.2,30.00,East,82,0.0,0.0,95,0.00,,,0.00,Weather View 32 v70,2013-02-11 13:35:00,
2013-02-11 06:40:00,18.5,17.2,30.00,East,82,0.0,0.0,95,0.00,,,0.00,Weather View 32 v70,2013-02-11 13:40:00,
2013-02-11 06:45:00,18.5,17.1,30.00,East,82,0.0,0.0,94,0.00,,,0.00,Weather View 32 v70,2013-02-11 13:45:00,
2013-02-11 06:50:00,18.4,17.0,30.00,East,82,0.0,0.0,94,0.00,,,0.00,Weather View 32 v70,2013-02-11 13:50:00,
2013-02-11 07:00:00,18.3,16.8,30.00,East,82,0.0,0.0,94,0.00,,,0.00,Weather View 32 v70,2013-02-11 14:00:00,
2013-02-11 07:05:00,18.5,17.0,30.00,East,82,0.0,0.0,94,0.00,,,0.00,Weather View 32 v70,2013-02-11 14:05:00,
2013-02-11 07:10:00,18.4,16.8,30.00,East,82,0.0,0.0,94,0.00,,,0.00,Weather View 32 v70,2013-02-11 14:10:00,
2013-02-11 07:15:00,18.3,16.7,30.00,East,82,0.0,0.0,94,0.00,,,0.00,Weather View 32 v70,2013-02-11 14:15:00,
2013-02-11 07:25:00,18.1,16.4,30.01,East,82,0.0,0.0,93,0.00,,,0.00,Weather View 32 v70,2013-02-11 14:25:00,
2013-02-11 07:30:00,18.2,16.4,30.01,East,82,0.0,0.0,93,0.00,,,0.00,Weather View 32 v70,2013-02-11 14:30:00,
2013-02-11 07:35:00,17.1,15.4,30.00,East,82,0.0,0.0,93,0.00,,,0.00,Weather View 32 v70,2013-02-11 14:35:00,
2013-02-11 07:40:00,17.3,15.6,30.01,East,82,0.0,0.0,93,0.00,,,0.00,Weather View 32 v70,2013-02-11 14:40:00,
2013-02-11 07:50:00,18.1,16.4,30.01,East,82,0.0,0.0,93,0.00,,,0.00,Weather View 32 v70,2013-02-11 14:50:00,
2013-02-11 07:55:00,18.9,17.2,30.01,East,82,0.0,0.0,93,0.00,,,0.00,Weather View 32 v70,2013-02-11 14:55:00,
2013-02-11 08:00:00,19.1,17.4,30.01,East,82,0.0,0.0,93,0.00,,,0.00,Weather View 32 v70,2013-02-11 15:00:00,
2013-02-11 08:05:00,19.4,17.7,30.01,East,82,0.0,0.0,93,0.00,,,0.00,Weather View 32 v70,2013-02-11 15:05:00,
2013-02-11 08:10:00,19.7,17.8,30.01,East,82,0.0,0.0,92,0.00,,,0.00,Weather View 32 v70,2013-02-11 15:10:00,
2013-02-11 08:19:00,19.9,17.9,30.01,East,82,0.0,0.0,92,0.00,,,0.00,Weather View 32 v70,2013-02-11 15:19:00,
2013-02-11 08:25:00,20.7,18.4,30.01,East,82,0.0,0.0,91,0.00,,,0.00,Weather View 32 v70,2013-02-11 15:25:00,
2013-02-11 08:30:00,20.7,18.5,30.01,East,82,0.0,0.0,91,0.00,,,0.00,Weather View 32 v70,2013-02-11 15:30:00,
2013-02-11 08:35:00,20.8,18.4,30.01,East,82,0.0,0.0,90,0.00,,,0.00,Weather View 32 v70,2013-02-11 15:35:00,
2013-02-11 08:40:00,20.6,18.2,30.01,East,82,0.0,0.0,90,0.00,,,0.00,Weather View 32 v70,2013-02-11 15:40:00,
2013-02-11 08:50:00,20.5,18.4,30.01,East,82,0.0,0.0,91,0.00,,,0.00,Weather View 32 v70,2013-02-11 15:50:00,
2013-02-11 08:55:00,20.5,18.2,30.01,East,82,0.0,0.0,91,0.00,,,0.00,Weather View 32 v70,2013-02-11 15:55:00,
2013-02-11 09:00:00,20.7,18.4,30.01,East,82,0.0,0.0,91,0.00,,,0.00,Weather View 32 v70,2013-02-11 16:00:00,
2013-02-11 09:05:00,21.0,18.7,30.01,East,82,0.0,0.0,91,0.00,,,0.00,Weather View 32 v70,2013-02-11 16:05:00,
2013-02-11 09:10:00,21.4,18.8,30.01,East,82,0.0,0.0,90,0.00,,,0.00,Weather View 32 v70,2013-02-11 16:10:00,
2013-02-11 09:19:00,21.2,18.5,30.00,East,82,0.0,0.0,89,0.00,,,0.00,Weather View 32 v70,2013-02-11 16:19:00,
2013-02-11 09:25:00,21.4,18.8,30.00,East,82,0.0,0.0,90,0.00,,,0.00,Weather View 32 v70,2013-02-11 16:25:00,
2013-02-11 09:35:00,22.3,19.2,30.00,East,82,0.0,0.0,88,0.00,,,0.00,Weather View 32 v70,2013-02-11 16:35:00,
2013-02-11 09:40:00,22.0,18.5,30.00,East,82,0.0,0.0,86,0.00,,,0.00,Weather View 32 v70,2013-02-11 16:40:00,
2013-02-11 09:45:00,21.5,18.1,30.00,East,82,0.0,0.0,87,0.00,,,0.00,Weather View 32 v70,2013-02-11 16:45:00,
2013-02-11 09:55:00,22.1,19.0,30.00,East,82,0.0,0.0,88,0.00,,,0.00,Weather View 32 v70,2013-02-11 16:55:00,
2013-02-11 10:00:00,22.8,19.4,30.00,East,82,0.0,0.0,86,0.00,,,0.00,Weather View 32 v70,2013-02-11 17:00:00,
2013-02-11 10:05:00,23.1,19.5,30.00,East,82,0.0,0.0,86,0.00,,,0.00,Weather View 32 v70,2013-02-11 17:05:00,
2013-02-11 10:10:00,23.3,19.5,30.00,East,82,0.0,0.0,85,0.00,,,0.00,Weather View 32 v70,2013-02-11 17:10:00,
2013-02-11 10:20:00,23.5,19.5,30.00,East,82,0.0,0.0,84,0.00,,,0.00,Weather View 32 v70,2013-02-11 17:20:00,
2013-02-11 10:30:00,23.1,18.9,30.00,East,82,0.0,0.0,84,0.00,,,0.00,Weather View 32 v70,2013-02-11 17:30:00,
2013-02-11 10:40:00,23.3,19.1,30.00,East,82,0.0,0.0,84,0.00,,,0.00,Weather View 32 v70,2013-02-11 17:40:00,
2013-02-11 10:45:00,23.1,18.9,30.00,East,82,0.0,0.0,84,0.00,,,0.00,Weather View 32 v70,2013-02-11 17:45:00,
2013-02-11 10:50:00,22.9,18.6,30.00,East,82,0.0,0.0,83,0.00,,,0.00,Weather View 32 v70,2013-02-11 17:50:00,
2013-02-11 10:55:00,22.8,18.6,30.00,East,82,0.0,0.0,84,0.00,,,0.00,Weather View 32 v70,2013-02-11 17:55:00,
2013-02-11 11:05:00,22.9,18.7,29.99,East,82,0.0,0.0,84,0.00,,,0.00,Weather View 32 v70,2013-02-11 18:05:00,
2013-02-11 11:10:00,23.3,18.8,29.99,East,82,0.0,0.0,83,0.00,,,0.00,Weather View 32 v70,2013-02-11 18:10:00,
2013-02-11 11:15:00,23.2,18.5,29.99,East,82,0.0,0.0,82,0.00,,,0.00,Weather View 32 v70,2013-02-11 18:15:00,
2013-02-11 11:21:00,23.3,18.8,29.99,East,82,0.0,0.0,83,0.00,,,0.00,Weather View 32 v70,2013-02-11 18:21:00,
2013-02-11 11:30:00,24.2,19.1,29.98,East,82,0.0,0.0,81,0.00,,,0.00,Weather View 32 v70,2013-02-11 18:30:00,
2013-02-11 11:35:00,24.6,19.2,29.98,East,82,0.0,0.0,80,0.00,,,0.00,Weather View 32 v70,2013-02-11 18:35:00,
2013-02-11 11:45:00,24.3,18.7,29.98,East,82,0.0,0.0,79,0.00,,,0.00,Weather View 32 v70,2013-02-11 18:45:00,
2013-02-11 11:50:00,24.5,18.7,29.98,East,82,0.0,0.0,78,0.00,,,0.00,Weather View 32 v70,2013-02-11 18:50:00,
2013-02-11 11:55:00,24.9,18.9,29.98,East,82,0.0,0.0,78,0.00,,,0.00,Weather View 32 v70,2013-02-11 18:55:00,
2013-02-11 12:05:00,24.3,18.3,29.97,East,82,0.0,0.0,77,0.00,,,0.00,Weather View 32 v70,2013-02-11 19:05:00,
2013-02-11 12:10:00,24.9,18.9,29.97,East,82,0.0,0.0,78,0.00,,,0.00,Weather View 32 v70,2013-02-11 19:10:00,
2013-02-11 12:15:00,25.4,19.1,29.97,East,82,0.0,0.0,77,0.00,,,0.00,Weather View 32 v70,2013-02-11 19:15:00,
2013-02-11 12:21:00,25.8,19.5,29.96,East,82,0.0,0.0,77,0.00,,,0.00,Weather View 32 v70,2013-02-11 19:21:00,
2013-02-11 12:30:00,25.3,18.7,29.96,East,82,0.0,0.0,76,0.00,,,0.00,Weather View 32 v70,2013-02-11 19:30:00,
2013-02-11 12:35:00,25.2,18.8,29.95,East,82,0.0,0.0,76,0.00,,,0.00,Weather View 32 v70,2013-02-11 19:35:00,
2013-02-11 12:40:00,25.5,18.8,29.95,East,82,0.0,0.0,76,0.00,,,0.00,Weather View 32 v70,2013-02-11 19:40:00,
2013-02-11 12:45:00,25.4,18.6,29.95,East,82,0.0,0.0,75,0.00,,,0.00,Weather View 32 v70,2013-02-11 19:45:00,
2013-02-11 12:55:00,26.5,19.6,29.95,East,82,0.0,0.0,75,0.00,,,0.00,Weather View 32 v70,2013-02-11 19:55:00,
2013-02-11 13:00:00,27.0,19.7,29.95,East,82,0.0,0.0,74,0.00,,,0.00,Weather View 32 v70,2013-02-11 20:00:00,
2013-02-11 13:10:00,26.5,19.4,29.95,East,82,0.0,0.0,74,0.00,,,0.00,Weather View 32 v70,2013-02-11 20:10:00,
2013-02-11 13:15:00,26.7,19.7,29.94,East,82,0.0,0.0,75,0.00,,,0.00,Weather View 32 v70,2013-02-11 20:15:00,
2013-02-11 13:20:00,26.3,19.3,29.94,East,82,0.0,0.0,74,0.00,,,0.00,Weather View 32 v70,2013-02-11 20:20:00,
2013-02-11 13:30:00,26.7,19.5,29.94,East,82,0.0,0.0,74,0.00,,,0.00,Weather View 32 v70,2013-02-11 20:30:00,
2013-02-11 13:35:00,26.9,19.3,29.94,East,82,0.0,0.0,73,0.00,,,0.00,Weather View 32 v70,2013-02-11 20:35:00,
2013-02-11 13:45:00,27.2,19.4,29.93,East,82,0.0,0.0,72,0.00,,,0.00,Weather View 32 v70,2013-02-11 20:45:00,
2013-02-11 13:50:00,27.4,19.4,29.94,East,82,0.0,0.0,72,0.00,,,0.00,Weather View 32 v70,2013-02-11 20:50:00,
2013-02-11 13:55:00,27.2,19.0,29.94,East,82,0.0,0.0,71,0.00,,,0.00,Weather View 32 v70,2013-02-11 20:55:00,
2013-02-11 14:00:00,26.8,18.8,29.93,East,82,0.0,0.0,71,0.00,,,0.00,Weather View 32 v70,2013-02-11 21:00:00,
2013-02-11 14:10:00,27.2,19.1,29.93,East,82,0.0,0.0,71,0.00,,,0.00,Weather View 32 v70,2013-02-11 21:10:00,
2013-02-11 14:15:00,27.5,19.2,29.93,East,82,0.0,0.0,71,0.00,,,0.00,Weather View 32 v70,2013-02-11 21:15:00,
2013-02-11 14:20:00,27.3,19.0,29.93,East,82,0.0,0.0,71,0.00,,,0.00,Weather View 32 v70,2013-02-11 21:20:00,
2013-02-11 14:30:00,27.0,18.8,29.93,East,82,0.0,0.0,71,0.00,,,0.00,Weather View 32 v70,2013-02-11 21:30:00,
2013-02-11 14:35:00,27.3,19.2,29.93,East,82,0.0,0.0,71,0.00,,,0.00,Weather View 32 v70,2013-02-11 21:35:00,
2013-02-11 14:40:00,27.3,18.9,29.93,East,82,0.0,0.0,70,0.00,,,0.00,Weather View 32 v70,2013-02-11 21:40:00,
2013-02-11 14:50:00,27.9,19.4,29.92,East,82,0.0,0.0,70,0.00,,,0.00,Weather View 32 v70,2013-02-11 21:50:00,
2013-02-11 14:55:00,28.1,19.4,29.92,East,82,0.0,0.0,70,0.00,,,0.00,Weather View 32 v70,2013-02-11 21:55:00,
2013-02-11 15:00:00,28.0,19.3,29.92,East,82,0.0,0.0,69,0.00,,,0.00,Weather View 32 v70,2013-02-11 22:00:00,
2013-02-11 15:10:00,27.5,19.2,29.92,East,82,0.0,0.0,71,0.00,,,0.00,Weather View 32 v70,2013-02-11 22:10:00,
2013-02-11 15:15:00,27.4,19.2,29.92,East,82,0.0,0.0,71,0.00,,,0.00,Weather View 32 v70,2013-02-11 22:15:00,
2013-02-11 15:20:00,27.7,19.4,29.92,East,82,0.0,0.0,71,0.00,,,0.00,Weather View 32 v70,2013-02-11 22:20:00,
2013-02-11 15:25:00,28.0,19.5,29.93,East,82,0.0,0.0,70,0.00,,,0.00,Weather View 32 v70,2013-02-11 22:25:00,
2013-02-11 15:30:00,28.0,19.4,29.93,East,82,0.0,0.0,70,0.00,,,0.00,Weather View 32 v70,2013-02-11 22:30:00,
2013-02-11 15:35:00,27.6,19.2,29.93,East,82,0.0,0.0,70,0.00,,,0.00,Weather View 32 v70,2013-02-11 22:35:00,
2013-02-11 15:45:00,27.3,19.2,29.93,East,82,0.0,0.0,71,0.00,,,0.00,Weather View 32 v70,2013-02-11 22:45:00,
2013-02-11 15:55:00,27.2,19.1,29.93,East,82,0.0,0.0,71,0.00,,,0.00,Weather View 32 v70,2013-02-11 22:55:00,
2013-02-11 16:05:00,26.8,19.7,29.93,East,82,0.0,0.0,74,0.00,,,0.00,Weather View 32 v70,2013-02-11 23:05:00,
2013-02-11 16:10:00,26.3,19.5,29.93,East,82,0.0,0.0,75,0.00,,,0.00,Weather View 32 v70,2013-02-11 23:10:00,
2013-02-11 16:15:00,26.1,19.4,29.93,East,82,0.0,0.0,75,0.00,,,0.00,Weather View 32 v70,2013-02-11 23:15:00,
2013-02-11 16:24:00,26.0,19.4,29.94,East,82,0.0,0.0,76,0.00,,,0.00,Weather View 32 v70,2013-02-11 23:24:00,
2013-02-11 16:30:00,26.1,19.4,29.95,East,82,0.0,0.0,76,0.00,,,0.00,Weather View 32 v70,2013-02-11 23:30:00,
2013-02-11 16:35:00,26.2,19.3,29.95,East,82,0.0,0.0,75,0.00,,,0.00,Weather View 32 v70,2013-02-11 23:35:00,
2013-02-11 16:45:00,26.1,19.1,29.95,East,82,0.0,0.0,75,0.00,,,0.00,Weather View 32 v70,2013-02-11 23:45:00,
2013-02-11 16:50:00,26.2,19.1,29.95,East,82,0.0,0.0,74,0.00,,,0.00,Weather View 32 v70,2013-02-11 23:50:00,
2013-02-11 16:55:00,26.1,18.8,29.95,East,82,0.0,0.0,74,0.00,,,0.00,Weather View 32 v70,2013-02-11 23:55:00,
2013-02-11 17:05:00,26.0,18.7,29.95,East,82,0.0,0.0,74,0.00,,,0.00,Weather View 32 v70,2013-02-12 00:05:00,
2013-02-11 17:10:00,26.0,18.7,29.95,East,82,0.0,0.0,74,0.00,,,0.00,Weather View 32 v70,2013-02-12 00:10:00,
2013-02-11 17:15:00,25.9,18.6,29.95,East,82,0.0,0.0,73,0.00,,,0.00,Weather View 32 v70,2013-02-12 00:15:00,
2013-02-11 17:20:00,25.9,18.7,29.95,East,82,0.0,0.0,74,0.00,,,0.00,Weather View 32 v70,2013-02-12 00:20:00,
2013-02-11 17:30:00,25.7,18.3,29.96,East,82,0.0,0.0,73,0.00,,,0.00,Weather View 32 v70,2013-02-12 00:30:00,
2013-02-11 17:35:00,25.7,18.3,29.96,East,82,0.0,0.0,73,0.00,,,0.00,Weather View 32 v70,2013-02-12 00:35:00,
2013-02-11 17:40:00,25.8,18.5,29.96,East,82,0.0,0.0,73,0.00,,,0.00,Weather View 32 v70,2013-02-12 00:40:00,
2013-02-11 17:50:00,25.9,18.6,29.97,East,82,0.0,0.0,74,0.00,,,0.00,Weather View 32 v70,2013-02-12 00:50:00,
2013-02-11 18:00:00,25.9,18.7,29.97,East,82,0.0,0.0,74,0.00,,,0.00,Weather View 32 v70,2013-02-12 01:00:00,
2013-02-11 18:05:00,25.8,18.7,29.97,East,82,0.0,0.0,74,0.00,,,0.00,Weather View 32 v70,2013-02-12 01:05:00,
2013-02-11 18:10:00,25.8,18.9,29.98,East,82,0.0,0.0,75,0.00,,,0.00,Weather View 32 v70,2013-02-12 01:10:00,
2013-02-11 18:20:00,25.8,18.9,29.98,East,82,0.0,0.0,75,0.00,,,0.00,Weather View 32 v70,2013-02-12 01:20:00,
2013-02-11 18:25:00,25.7,18.8,29.98,East,82,0.0,0.0,75,0.00,,,0.00,Weather View 32 v70,2013-02-12 01:25:00,
2013-02-11 18:35:00,25.7,18.9,29.98,East,82,0.0,0.0,75,0.00,,,0.00,Weather View 32 v70,2013-02-12 01:35:00,
2013-02-11 18:40:00,25.6,18.8,29.98,East,82,0.0,0.0,75,0.00,,,0.00,Weather View 32 v70,2013-02-12 01:40:00,
2013-02-11 18:45:00,25.6,18.9,29.98,East,82,0.0,0.0,75,0.00,,,0.00,Weather View 32 v70,2013-02-12 01:45:00,
2013-02-11 18:50:00,25.6,18.9,29.98,East,82,0.0,0.0,76,0.00,,,0.00,Weather View 32 v70,2013-02-12 01:50:00,
2013-02-11 19:00:00,25.6,19.0,29.98,East,82,0.0,0.0,76,0.00,,,0.00,Weather View 32 v70,2013-02-12 02:00:00,
2013-02-11 19:05:00,25.5,19.0,29.99,East,82,0.0,0.0,76,0.00,,,0.00,Weather View 32 v70,2013-02-12 02:05:00,
2013-02-11 19:10:00,25.5,19.1,29.99,East,82,0.0,0.0,77,0.00,,,0.00,Weather View 32 v70,2013-02-12 02:10:00,
2013-02-11 19:20:00,25.4,19.1,29.99,East,82,0.0,0.0,77,0.00,,,0.00,Weather View 32 v70,2013-02-12 02:20:00,
2013-02-11 19:25:00,25.6,19.3,29.99,East,82,0.0,0.0,77,0.00,,,0.00,Weather View 32 v70,2013-02-12 02:25:00,
2013-02-11 19:35:00,25.5,19.3,29.99,East,82,0.0,0.0,77,0.00,,,0.00,Weather View 32 v70,2013-02-12 02:35:00,
2013-02-11 19:40:00,25.4,19.4,29.99,East,82,0.0,0.0,78,0.00,,,0.00,Weather View 32 v70,2013-02-12 02:40:00,
2013-02-11 19:45:00,25.3,20.1,29.99,East,82,0.0,0.0,80,0.00,,,0.00,Weather View 32 v70,2013-02-12 02:45:00,
2013-02-11 19:50:00,25.1,19.5,29.99,East,82,0.0,0.0,79,0.00,,,0.00,Weather View 32 v70,2013-02-12 02:50:00,
2013-02-11 20:00:00,25.2,19.6,29.99,East,82,0.0,0.0,79,0.00,,,0.00,Weather View 32 v70,2013-02-12 03:00:00,
2013-02-11 20:05:00,25.2,19.6,29.99,East,82,0.0,0.0,79,0.00,,,0.00,Weather View 32 v70,2013-02-12 03:05:00,
2013-02-11 20:10:00,25.2,19.6,29.99,East,82,0.0,0.0,79,0.00,,,0.00,Weather View 32 v70,2013-02-12 03:10:00,
2013-02-11 20:20:00,25.3,19.9,29.99,East,82,0.0,0.0,80,0.00,,,0.00,Weather View 32 v70,2013-02-12 03:20:00,
2013-02-11 20:25:00,25.2,19.9,29.99,East,82,0.0,0.0,80,0.00,,,0.00,Weather View 32 v70,2013-02-12 03:25:00,
2013-02-11 20:35:00,25.1,20.0,29.99,East,82,0.0,0.0,81,0.00,,,0.00,Weather View 32 v70,2013-02-12 03:35:00,
2013-02-11 20:40:00,25.1,20.2,29.99,East,82,0.0,0.0,81,0.00,,,0.00,Weather View 32 v70,2013-02-12 03:40:00,
2013-02-11 20:45:00,25.1,20.2,29.99,East,82,0.0,0.0,82,0.00,,,0.00,Weather View 32 v70,2013-02-12 03:45:00,
2013-02-11 20:55:00,24.8,20.2,29.99,East,82,0.0,0.0,82,0.00,,,0.00,Weather View 32 v70,2013-02-12 03:55:00,
2013-02-11 21:00:00,24.8,20.2,29.99,East,82,0.0,0.0,83,0.00,,,0.00,Weather View 32 v70,2013-02-12 04:00:00,
2013-02-11 21:05:00,24.8,20.3,30.00,East,82,0.0,0.0,83,0.00,,,0.00,Weather View 32 v70,2013-02-12 04:05:00,
2013-02-11 21:15:00,24.7,20.4,30.00,East,82,0.0,0.0,83,0.00,,,0.00,Weather View 32 v70,2013-02-12 04:15:00,
2013-02-11 21:20:00,24.6,20.3,30.00,East,82,0.0,0.0,83,0.00,,,0.00,Weather View 32 v70,2013-02-12 04:20:00,
2013-02-11 21:25:00,24.5,20.2,30.00,East,82,0.0,0.0,84,0.00,,,0.00,Weather View 32 v70,2013-02-12 04:25:00,
2013-02-11 21:35:00,24.5,20.2,29.99,East,82,0.0,0.0,83,0.00,,,0.00,Weather View 32 v70,2013-02-12 04:35:00,
2013-02-11 21:40:00,24.5,20.1,30.00,East,82,0.0,0.0,83,0.00,,,0.00,Weather View 32 v70,2013-02-12 04:40:00,
2013-02-11 21:50:00,24.5,20.2,30.00,East,82,0.0,0.0,84,0.00,,,0.00,Weather View 32 v70,2013-02-12 04:50:00,
2013-02-11 21:55:00,24.3,20.2,30.00,East,82,0.0,0.0,84,0.00,,,0.00,Weather View 32 v70,2013-02-12 04:55:00,
2013-02-11 22:00:00,24.1,20.0,29.99,East,82,0.0,0.0,84,0.00,,,0.00,Weather View 32 v70,2013-02-12 05:00:00,
2013-02-11 22:05:00,24.0,20.0,29.99,East,82,0.0,0.0,84,0.00,,,0.00,Weather View 32 v70,2013-02-12 05:05:00,
2013-02-11 22:15:00,23.9,19.9,29.99,East,82,0.0,0.0,85,0.00,,,0.00,Weather View 32 v70,2013-02-12 05:15:00,
2013-02-11 22:20:00,23.8,19.9,30.00,East,82,0.0,0.0,85,0.00,,,0.00,Weather View 32 v70,2013-02-12 05:20:00,
2013-02-11 22:27:00,23.5,19.7,29.99,East,82,0.0,0.0,85,0.00,,,0.00,Weather View 32 v70,2013-02-12 05:27:00,
2013-02-11 22:35:00,23.4,19.8,29.99,East,82,0.0,0.0,86,0.00,,,0.00,Weather View 32 v70,2013-02-12 05:35:00,
2013-02-11 22:40:00,23.3,19.8,30.00,East,82,0.0,0.0,86,0.00,,,0.00,Weather View 32 v70,2013-02-12 05:40:00,
2013-02-11 22:50:00,23.2,19.4,29.99,East,82,0.0,0.0,85,0.00,,,0.00,Weather View 32 v70,2013-02-12 05:50:00,
2013-02-11 22:55:00,23.1,19.3,29.99,East,82,0.0,0.0,85,0.00,,,0.00,Weather View 32 v70,2013-02-12 05:55:00,
2013-02-11 23:00:00,22.9,19.1,29.99,East,82,0.0,0.0,85,0.00,,,0.00,Weather View 32 v70,2013-02-12 06:00:00,
2013-02-11 23:10:00,22.4,18.7,29.99,East,82,0.0,0.0,86,0.00,,,0.00,Weather View 32 v70,2013-02-12 06:10:00,
2013-02-11 23:15:00,22.0,18.3,29.99,East,82,0.0,0.0,86,0.00,,,0.00,Weather View 32 v70,2013-02-12 06:15:00,
2013-02-11 23:20:00,21.9,18.4,29.99,East,82,0.0,0.0,86,0.00,,,0.00,Weather View 32 v70,2013-02-12 06:20:00,
2013-02-11 23:28:00,22.0,18.1,29.98,East,82,0.0,0.0,85,0.00,,,0.00,Weather View 32 v70,2013-02-12 06:28:00,
2013-02-11 23:35:00,21.9,17.9,29.99,East,82,0.0,0.0,84,0.00,,,0.00,Weather View 32 v70,2013-02-12 06:35:00,
2013-02-11 23:45:00,21.6,17.6,29.99,East,82,0.0,0.0,84,0.00,,,0.00,Weather View 32 v70,2013-02-12 06:45:00,
2013-02-11 23:50:00,21.5,17.5,29.99,East,82,0.0,0.0,84,0.00,,,0.00,Weather View 32 v70,2013-02-12 06:50:00,